Muncie, IN

4:58 PM EDT on August 22, 2017 (GMT -0400)
Delaware County-Johnson

Weather History for KMIE - October, 2012

Change the Weather History Date:

Saturday, October 13, 2012

  Actual Average Record
Temperature  
Mean Temperature 53 °F 55 °F  
Max Temperature 67 °F 65 °F 82 °F (1976)
Min Temperature 38 °F 44 °F 22 °F (1988)
Degree Days  
Heating Degree Days 12 11  
Month to date heating degree days 185 120  
Since 1 July heating degree days 310 221  
Cooling Degree Days 0 1  
Month to date cooling degree days 1 13  
Year to date cooling degree days 1142 952  
Growing Degree Days 2 (Base 50)    
Moisture  
Dew Point 44 °F    
Average Humidity 71    
Maximum Humidity 90    
Minimum Humidity 51    
Precipitation  
Precipitation 0.06 in 0.09 in 1.20 in (1983)
Month to date precipitation 2.01 1.29  
Year to date precipitation 26.57 32.16  
Sea Level Pressure  
Sea Level Pressure 30.15 in    
Wind  
Wind Speed 9 mph (South)    
Max Wind Speed 17 mph    
Max Gust Speed 24 mph    
Visibility 9 miles    
Events Rain    
T = Trace of Precipitation, MM = Missing Value Source: NWS Daily Summary

Daily Weather History Graph

Daily Weather History Graph

Search for Another Location

Airport or City:

Trip Planner

Search our weather history database for the weather conditions in past years. The results will help you decide how hot, cold, wet, or windy it might be!

Date:

Astronomy

Oct. 13, 2012 Rise Set
Actual Time 7:50 AM EDT 7:04 PM EDT
Civil Twilight 7:23 AM EDT 7:31 PM EDT
Nautical Twilight 6:51 AM EDT 8:02 PM EDT
Astronomical Twilight 6:20 AM EDT 8:34 PM EDT
Moon 5:39 AM EDT (10/13) 5:47 PM EDT (10/13)
Length of Visible Light 12h 08m
Length of Day
11h 13m
Waning Crescent, 5% of the Moon is Illuminated
Oct 13
Waning Crescent
Oct 15
New
Oct 21
First Quarter
Oct 29
Full
Nov 6
Last Quarter

Hourly Weather History & Observations

Time (EDT) Temp. Windchill Dew Point Humidity Pressure Visibility Wind Dir Wind Speed Gust Speed Precip Events Conditions
12:53 AM 39.9 °F 34.5 °F 28.0 °F 63% 30.32 in 10.0 mi SE 8.1 mph - N/A   Clear
1:53 AM 39.9 °F 35.1 °F 28.0 °F 63% 30.30 in 10.0 mi ESE 6.9 mph - N/A   Clear
2:53 AM 41.0 °F 37.1 °F 28.0 °F 60% 30.30 in 10.0 mi SE 5.8 mph - N/A   Clear
3:53 AM 41.0 °F 39.0 °F 28.0 °F 60% 30.30 in 10.0 mi SSE 3.5 mph - N/A   Clear
4:53 AM 43.0 °F 38.8 °F 28.9 °F 58% 30.27 in 10.0 mi SSE 6.9 mph - N/A   Clear
5:53 AM 46.0 °F 41.4 °F 30.0 °F 54% 30.25 in 10.0 mi SSE 9.2 mph - N/A   Clear
6:53 AM 46.9 °F - 33.1 °F 59% 30.23 in 10.0 mi South 8.1 mph - N/A   Clear
7:53 AM 48.0 °F - 34.0 °F 58% 30.24 in 10.0 mi South 8.1 mph - N/A   Mostly Cloudy
8:53 AM 48.9 °F - 35.1 °F 59% 30.21 in 10.0 mi South 10.4 mph - N/A   Clear
9:53 AM 53.1 °F - 37.9 °F 57% 30.19 in 10.0 mi South 11.5 mph - N/A   Overcast
10:53 AM 57.0 °F - 39.9 °F 53% 30.17 in 10.0 mi South 15.0 mph 20.7 mph N/A   Clear
11:53 AM 61.0 °F - 44.1 °F 54% 30.15 in 10.0 mi South 9.2 mph 18.4 mph N/A   Clear
12:53 PM 63.0 °F - 48.0 °F 58% 30.13 in 10.0 mi South 11.5 mph 20.7 mph N/A   Partly Cloudy
1:53 PM 66.0 °F - 51.1 °F 59% 30.09 in 10.0 mi SSW 10.4 mph 19.6 mph N/A   Mostly Cloudy
2:53 PM 66.9 °F - 52.0 °F 59% 30.06 in 10.0 mi SSW 10.4 mph 19.6 mph N/A   Overcast
4:53 PM 66.0 °F - 54.0 °F 65% 30.04 in 10.0 mi SSW 9.2 mph - 0.00 in Rain Light Rain
5:53 PM 63.0 °F - 59.0 °F 87% 30.03 in 3.0 mi Calm Calm - 0.04 in Rain Light Rain
6:01 PM 62.6 °F - 59.0 °F 88% 30.04 in 2.5 mi WSW 3.5 mph - 0.01 in Rain Light Rain
6:18 PM 62.6 °F - 59.0 °F 88% 30.02 in 4.0 mi South 4.6 mph - 0.02 in Rain Light Rain
6:53 PM 64.0 °F - 60.1 °F 87% 30.01 in 5.0 mi South 6.9 mph - 0.02 in   Overcast
8:53 PM 66.0 °F - 60.1 °F 81% 29.94 in 9.0 mi South 13.8 mph - N/A   Clear
10:53 PM 66.9 °F - 61.0 °F 81% 29.97 in 9.0 mi SSW 10.4 mph - N/A   Scattered Clouds